Location: Banska Bystrica
(48.7330°N, 19.1500°E)
Time: 19:44:11
(UTC+02:00)

Tiangong 2 - Pass Details

Date: 25 May 2019
Orbit: 376 x 389 km, 42.8° (Epoch: 17 June)

Event Time Altitude Azimuth Distance (km) Brightness Sun altitude
Rises 21:11:50 0° 253° (WSW) 2,237 5.4 -6.2°
Reaches altitude 10° 21:14:04 10° 241° (WSW) 1,384 4.1 -6.5°
Maximum altitude 21:16:45 27° 181° (S) 764 2.2 -6.8°
Drops below altitude 10° 21:19:27 10° 121° (ESE) 1,381 3.2 -7.1°
Enters shadow 21:19:37 - 119° (ESE) 1,440 3.3 -7.2°
